#timestamp,LO_Frequency,Hit,StdDev 
1514782815.6,286046997.0,N
1514782835.4,286046999.6,N
1514782855.3,286046996.9,N
1514782875.1,286046998.8,N
1514782895.8,286046998.6,N
1514782915.7,286046998.7,N
1514782935.5,286046999.4,N
1514782955.4,286046996.5,N
1514782975.2,286046999.5,N
1514782995.0,286046998.3,N
1514782995.9,286046998.3,N
1514783015.8,286046998.6,N
1514783035.6,286046998.3,N
1514783055.5,286046998.8,N
1514783075.3,286046999.3,N
1514783095.1,286046999.6,N
1514783115.9,286046999.1,N
1514783135.7,286046999.6,N
1514783155.5,286046997.4,N
1514783175.4,286046996.7,N
1514783195.2,286046998.0,N
1514783215.1,286046995.3,Y
1514783216.0,286046995.3,P
1514783235.8,286046999.5,N
1514783255.6,286046999.3,N
1514783275.5,286046998.8,N
1514783295.3,286046996.5,N
1514783315.2,286046996.9,N
1514783335.9,286046997.0,N
1514783355.7,286046999.5,N
1514783375.6,286046997.3,N
1514783395.4,286046997.2,N
1514783415.2,286046995.0,Y
1514783435.1,286046998.9,P
1514783436.0,286046998.9,N
1514783455.8,286046999.5,N
1514783475.7,286046996.5,Y
1514783495.5,286046998.9,P
1514783515.3,286046996.5,P
1514783535.2,286046997.1,N
1514783555.0,286046996.9,Y
1514783555.9,286046996.9,P
1514783575.8,286047002.4,P
1514783595.6,286047001.2,N
1514783615.4,286046998.7,N
1514783635.3,286047000.8,N
1514783655.1,286046998.7,N
1514783675.8,286046999.0,N
1514783695.7,286046998.8,N
1514783715.5,286046999.1,N
1514783735.4,286046997.0,N
1514783755.2,286046997.1,N
1514783775.0,286046995.0,Y
1514783775.9,286046995.0,P
1514783795.8,286046997.9,N
1514783815.6,286046994.9,P
1514783835.5,286046997.2,N
1514783855.3,286046997.3,N
1514783875.1,286046998.0,N
1514783895.9,286046997.4,N
1514783915.7,286046996.9,N
1514783935.6,286046997.5,N
1514783955.4,286046998.0,N
1514783975.2,286046996.3,Y
1514783995.1,286046996.8,P
1514783996.0,286046996.8,P
1514784015.8,286046993.8,P
1514784035.7,286046996.3,N
1514784055.5,286046996.1,Y
1514784075.3,286046998.8,P
1514784095.2,286047000.7,N
1514784115.0,286046998.5,N
1514784115.9,286046998.5,N
1514784135.8,286046998.4,N
1514784155.6,286046999.2,N
1514784175.4,286046999.3,N
1514784195.3,286046998.0,N
1514784215.1,286046995.6,Y
1514784235.8,286046997.0,P
1514784255.7,286046999.6,N
1514784275.5,286046998.1,N
1514784295.4,286046998.3,N
1514784315.2,286046998.2,N
1514784335.0,286047000.7,N
1514784335.9,286047000.7,N
1514784355.8,286047002.5,N
1514784375.6,286047001.8,N
1514784395.5,286047003.7,N
1514784415.3,286047004.2,N
1514784435.1,286047006.0,N
1514784455.9,286047004.6,N
1514784475.7,286047003.8,N
1514784495.5,286047004.3,N
1514784515.4,286047001.3,N
1514784535.2,286047002.7,N
1514784555.1,286047002.4,N
1514784556.0,286047002.4,N
1514784575.8,286047003.5,N
1514784595.6,286047003.4,N
1514784615.5,286047003.3,N
1514784635.3,286047003.7,N
1514784655.1,286047002.0,N
1514784675.9,286047002.7,N
1514784695.7,286046999.9,N
1514784715.6,286046996.5,N
1514784735.4,286046998.9,N
1514784755.2,286046998.3,N
1514784775.1,286046998.5,N
1514784776.0,286046998.5,N
1514784795.8,286046999.7,N
1514784815.7,286046999.7,N
1514784835.5,286047002.5,N
1514784855.3,286047003.6,N
1514784875.2,286047003.3,N
1514784895.0,286047007.6,Y
1514784895.9,286047007.6,P
1514784915.8,286047003.6,N
1514784935.6,286047005.3,N
1514784955.4,286047003.0,N
1514784975.3,286047004.7,N
1514784995.1,286047007.6,Y
1514785015.8,286047002.7,P
1514785035.7,286047000.6,N
1514785055.5,286046998.3,N
1514785075.4,286046996.8,N
1514785095.2,286046998.0,N
1514785115.0,286046998.0,N
1514785115.9,286046998.0,N
1514785135.8,286046995.3,N
1514785155.6,286046995.2,N
1514785175.4,286046997.2,N
1514785195.3,286046998.4,N
1514785215.1,286046999.6,N
1514785235.9,286046997.3,N
1514785255.7,286046999.5,N
1514785275.5,286046999.1,N
1514785295.4,286047000.5,N
1514785315.2,286047000.2,N
1514785335.1,286047002.0,N
1514785336.0,286047002.0,N
1514785355.8,286047002.2,N
1514785375.6,286047004.4,N
1514785395.5,286047005.5,N
1514785415.3,286047004.6,N
1514785435.1,286047005.1,N
1514785455.9,286047007.0,N
1514785475.7,286047007.0,N
1514785495.6,286047004.5,N
1514785515.4,286047006.8,N
1514785535.2,286047010.8,Y
1514785555.1,286047007.9,P
1514785556.0,286047007.9,N
1514785575.8,286047008.2,N
1514785595.7,286047006.2,N
1514785615.5,286047007.8,N
1514785635.3,286047010.5,Y
1514785655.2,286047005.6,P
1514785675.0,286047005.6,P
1514785675.9,286047005.6,P
1514785695.8,286047003.5,Y
1514785715.6,286046999.5,P
1514785735.4,286046999.1,N
1514785755.3,286046996.7,N
1514785775.1,286046994.9,N
1514785795.9,286046995.1,N
1514785815.7,286046995.6,N
1514785835.5,286046997.8,N
1514785855.4,286046997.7,N
1514785875.2,286046997.6,N
1514785895.0,286046997.8,N
1514785895.9,286046997.8,N
1514785915.8,286046996.9,N
1514785935.6,286046997.9,N
1514785955.5,286046996.9,N
1514785975.3,286046997.9,N
1514785995.1,286046995.3,N
1514786015.9,286046999.5,N
1514786035.7,286046997.3,N
1514786055.6,286046997.9,N
1514786075.4,286046996.2,N
1514786095.2,286046995.8,N
1514786115.1,286046998.0,N
1514786116.0,286046998.0,N
1514786135.8,286046995.4,N
1514786155.6,286046995.0,N
1514786175.5,286046995.2,N
1514786195.3,286046995.8,N
1514786215.2,286046998.0,N
1514786235.9,286046995.4,N
1514786255.7,286046996.3,N
1514786275.6,286046995.9,Y
1514786295.4,286046999.3,P
1514786315.3,286046999.3,N
1514786335.1,286046997.3,N
1514786336.0,286046997.3,N
1514786355.8,286046999.6,N
1514786375.7,286046999.5,N
1514786395.5,286046999.1,N
